User: anonymous   Login
Location: Ch�tillon
(48.8024°N, 2.2935°E)
Time: 02:07:50
(UTC+00:00)
Language:

ATLAS 3B R/B - Orbit

View from above orbital plane
View from above orbital plane
View from above satellite
View from above satellite

Ground track
Ground track

The orbit data is extracted from the following two-line orbital elements,

1 28538U 05004B   22024.75285393 0.00000060  00000-0  98869-4 0    00
2 28538  63.8261  15.4428 0139796 353.1864   6.8135 13.43154375    02
Epoch (UTC): 24 January 2022 18:04:06
Eccentricity: 0.0139796
inclination: 63.8261°
perigee height: 993 km
apogee height: 1202 km
right ascension of ascending node: 15.4428°
argument of perigee: 353.1864°
revolutions per day: 13.43154375
mean anomaly at epoch: 6.8135°
orbit number at epoch: 0

The dashed part of the orbit path shows where the satellite is in the earth's shadow,  

DLR